Location: North Evanston
(42.0634°N, 87.6976°W)
Time: 20:02:02
(UTC+00:00)

Vanguard 2 Rocket - Pass Details

Date: 14 May 2026
Orbit: 553 x 3286 km, 32.9° (Epoch: 6 June)

Event Time Altitude Azimuth Distance (km) Brightness Sun altitude
Rises 16:23:44 0° 228° (SW) 5,121 10.7 60.7°
Reaches altitude 10° 16:26:47 10° 222° (SW) 4,448 10.6 61.1°
Maximum altitude 16:39:20 48° 153° (SSE) 3,351 11.7 62.6°
Drops below altitude 10° 16:57:17 10° 88° (E) 6,223 11.4 64.4°
Sets 17:02:29 0° 84° (E) 7,254 11.6 64.8°
